Flag for U.S.A. Weather past 2 weeks in Portland, Oregon, U.S.A.

Now
50 °F

Mostly cloudy.


Feels Like: 48 °F
Forecast: 45 / 57 °F
Wind: 5 mph from Southwest

Location: Portland International Airport

Current Time: Apr 24, 2015 at 11:48:17 PM

Latest Report: Apr 24, 2015 at 10:53 PM


Visibility: 10 mi

Pressure: 29.91 "Hg

Humidity: 83%

Dew point: 45 °F

Location of PortlandLocation

Historic Weather in Portland — Graph

°F

Portland temperature yesterday

Maximum temperature yesterday: 53 °F (at 1:53 PM)
Minimum temperature yesterday: 44 °F (at 5:53 AM)
Average temperature yesterday: 49 °F

Past Weeks' High & Low Weather Summary

 TemperatureHumidityPressure
High80 °F (Apr 20, 3:53 PM)100% (Apr 14, 11:53 PM)30.58 "Hg (Apr 14, 11:53 PM)
Low36 °F (Apr 15, 3:53 AM)23% (Apr 20, 3:53 PM)29.78 "Hg (Apr 20, 6:53 PM)
Average53 °F68%30.11 "Hg
* Reported Apr 9 9:53 PM — Apr 24 9:53 PM, Portland, Weather by CustomWeather, © 2015

Note: Actual official high and low records may vary slightly from our data, if they occured in-between our weather recording intervals... More about our weather records

Advertising

Portland weather history for previous 24 hours

 ConditionsComfort  
Time TempWeatherWind HumidityBarometerVisibility
9:53 PM
Fri, Apr 24
51 °FMostly cloudy.6 mph86%29.91 "Hg10 mi
8:53 PM51 °FMostly cloudy.3 mph86%29.90 "Hg10 mi
7:53 PM51 °FMostly cloudy.6 mph86%29.89 "Hg10 mi
6:53 PM53 °FMostly cloudy.No wind74%29.88 "Hg10 mi
5:53 PM55 °FMostly cloudy.8 mph64%29.87 "Hg10 mi
4:53 PM55 °FCloudy.10 mph72%29.87 "Hg10 mi
3:53 PM53 °FLight rain. Mostly cloudy.12 mph80%29.87 "Hg6 mi
2:53 PM55 °FBroken clouds.9 mph64%29.87 "Hg10 mi
1:53 PM54 °FCloudy.13 mph77%29.88 "Hg10 mi
12:53 PM52 °FLight rain. Broken clouds.14 mph77%29.90 "Hg10 mi
11:53 AM49 °FRain. Fog.8 mph86%29.91 "Hg5 mi
10:53 AM50 °FPartly sunny.7 mph80%29.90 "Hg10 mi
9:53 AM49 °FCloudy.14 mph80%29.90 "Hg10 mi
8:53 AM49 °FMore clouds than sun.14 mph84%29.89 "Hg10 mi
7:53 AM47 °FLight rain. Mostly cloudy.8 mph86%29.88 "Hg10 mi
6:53 AM47 °FMostly cloudy.12 mph86%29.87 "Hg10 mi
5:53 AM46 °FLight rain. Mostly cloudy.10 mph89%29.86 "Hg10 mi
4:53 AM47 °FOvercast.7 mph86%29.86 "Hg10 mi
3:53 AM47 °FOvercast.6 mph86%29.87 "Hg10 mi
2:53 AM47 °FPartly cloudy.5 mph86%29.87 "Hg10 mi
1:53 AM47 °FPassing clouds.8 mph86%29.87 "Hg10 mi
12:53 AM46 °FPassing clouds.6 mph93%29.87 "Hg10 mi
11:53 PM
Thu, Apr 23
47 °FPartly cloudy.No wind93%29.86 "Hg10 mi
Weather by CustomWeather, © 2015

See weather overviewHow to use our weather pages